Location: Austin
(30.3000°N, 97.7500°W)
Time: 23:14:51
(UTC-05:00)

Cosmos 1844 Rocket - Pass Details

Date: 08 April 2026
Orbit: 824 x 842 km, 71.0° (Epoch: 20 April)

Event Time Altitude Azimuth Distance (km) Brightness Sun altitude
Rises 21:16:08 0° 341° (NNW) 3,367 6.4 -17.9°
Reaches altitude 10° 21:18:34 10° 343° (NNW) 2,429 5.6 -18.4°
Maximum altitude 21:24:08 79° 70° (ENE) 841 2.5 -19.5°
Enters shadow 21:27:07 29° 154° (SSE) 1,479 3.6 -20.1°
